Flag for India Weather past 2 weeks in Yavatmal, Maharashtra, India

Now
113 °F

Scattered clouds.


Feels Like: 111 °F
Forecast: 87 / 107 °F
Wind: 8 mph from Northwest

Location: Nagpur Sonegaon

Current Time: May 26, 2015 at 2:34:51 PM

Latest Report: May 26, 2015 at 1:40 PM


Visibility: 3 mi

Pressure: 29.62 "Hg

Humidity: 14%

Dew point: 54 °F

Location of YavatmalLocation

Historic Weather in Yavatmal — Graph

°F

Yavatmal temperature yesterday

Maximum temperature yesterday: 117 °F (at 2:40 PM)
Minimum temperature yesterday: 86 °F (at 1:10 AM)
Average temperature yesterday: 101 °F

Past Weeks' High & Low Weather Summary

 TemperatureHumidityPressure
High118 °F (May 19, 2:40 PM)89% (May 15, 5:10 PM)29.92 "Hg (May 15, 5:10 PM)
Low72 °F (May 15, 2:40 PM)8% (May 19, 5:10 PM)29.50 "Hg (May 19, 4:10 PM)
Average96 °F38%29.69 "Hg
* Reported May 11 12:40 PM — May 26 1:10 PM, Yavatmal, Weather by CustomWeather, © 2015

Note: Actual official high and low records may vary slightly from our data, if they occured in-between our weather recording intervals... More about our weather records

Advertising

Yavatmal weather history for previous 24 hours

 ConditionsComfort  
Time TempWeatherWind HumidityBarometerVisibility
1:10 PM
Tue, May 26
115 °FScattered clouds.7 mph13%29.62 "Hg4 mi
12:40 PM115 °FScattered clouds.6 mph15%29.65 "Hg4 mi
11:40 AM111 °FClear.10 mph21%29.68 "Hg4 mi
11:10 AM109 °FClear.13 mph23%29.68 "Hg4 mi
10:40 AM108 °FClear.14 mph25%29.71 "Hg4 mi
10:10 AM106 °FClear.13 mph28%29.71 "Hg4 mi
9:40 AM104 °FClear.12 mph29%29.71 "Hg4 mi
9:10 AM102 °FClear.16 mph33%29.71 "Hg4 mi
8:40 AM99 °FClear.17 mph37%29.71 "Hg4 mi
8:10 AM97 °FClear.18 mph39%29.71 "Hg4 mi
5:40 AM90 °FHaze.9 mph75%29.65 "Hg2 mi
5:10 AM91 °FHaze.12 mph32%29.65 "Hg2 mi
4:40 AM91 °FHaze.12 mph32%29.65 "Hg2 mi
4:10 AM91 °FHaze.10 mph30%29.62 "Hg2 mi
2:10 AM95 °FHaze.9 mph26%29.62 "Hg2 mi
1:40 AM95 °FHaze.10 mph26%29.62 "Hg2 mi
1:10 AM95 °FHaze.8 mph26%29.62 "Hg2 mi
12:40 AM95 °FHaze.9 mph26%29.62 "Hg2 mi
12:10 AM95 °FHaze.7 mph25%29.65 "Hg2 mi
11:40 PM
Mon, May 25
95 °FHaze.6 mph26%29.65 "Hg2 mi
11:10 PM95 °FHaze.6 mph25%29.65 "Hg2 mi
10:40 PM97 °FHaze.6 mph23%29.65 "Hg2 mi
10:10 PM97 °FHaze.6 mph23%29.65 "Hg2 mi
9:40 PM99 °FHaze.6 mph19%29.62 "Hg2 mi
9:10 PM100 °FHaze.6 mph20%29.62 "Hg2 mi
8:40 PM100 °FHaze.6 mph20%29.62 "Hg2 mi
7:40 PM104 °FHaze.6 mph17%29.59 "Hg2 mi
7:10 PM106 °FDuststorm.7 mph17%29.59 "Hg2 mi
6:40 PM109 °FDuststorm.12 mph15%29.59 "Hg2 mi
6:10 PM109 °FDuststorm.12 mph15%29.56 "Hg2 mi
5:10 PM113 °FPassing clouds.13 mph12%29.56 "Hg3 mi
4:40 PM115 °FPassing clouds.14 mph10%29.53 "Hg3 mi
3:40 PM115 °FPassing clouds.13 mph11%29.56 "Hg3 mi
3:10 PM115 °FScattered clouds.10 mph11%29.56 "Hg3 mi
2:40 PM117 °FScattered clouds.16 mph11%29.56 "Hg3 mi
Weather by CustomWeather, © 2015

See weather overviewHow to use our weather pages